Location: Unspecified
(0.0000°N, 0.0000°E)
Time: 23:43:40
(UTC+00:00)

Courier 1B Rocket - Pass Details

Date: 13 December 2018
Orbit: 920 x 1202 km, 28.3° (Epoch: 18 January)

Event Time Altitude Azimuth Distance (km) Brightness Sun altitude
Rises 19:41:11 0° 276° (W) 4,081 9.1 -24.4°
Reaches altitude 10° 19:44:30 10° 266° (W) 3,100 8.5 -25.2°
Maximum altitude 19:50:59 29° 208° (SSW) 1,953 7.0 -26.6°
Drops below altitude 10° 19:57:14 10° 150° (SSE) 2,964 7.5 -28.0°
Enters shadow 20:00:10 - 140° (SE) 3,824 8.0 -28.7°
Sets 20:00:20 0° 139° (SE) 3,875 - -28.7°
